2021-107A (49492 NORAD) Tracking and Keplerian Element Data

This shows tracking and keplerian element data for the satellite.

Feedback or suggestion? Click here.




ElementValue
Catalog49492
Name2021-107A
Epoch Orbit246
Epoch Day340.1835458
Epoch Year2021
RAAN30.6344
Inclination97.4569
Eccentricity0.0320863
Argument of Perigee114.2672
Mean Anonmoly321.3099
Mean Motion15.35326641
Decay Rate0.00077181
L11 49492U 21107A 21340.18354580 .00077181 31469-5 36110-3 0 9999
L22 49492 97.4569 30.6344 0320863 114.2672 321.3099 15.35326641 2460

Live tracking and technical data element details for 2021-107A (NORAD 49492). 2021-107A can be tracked NOW for your location showing map with azimuth and elevation plus other details from your city location.

Track the satellite on the map from your city or location and see movement details for azimuth, elevation, latitude, longitude, range, height, and movement on the map or in text.







IsCatalogInMostPopularTable: catalog: 49492, numindb: 1
Update: records affected: 1



GetName: 49492 2021-107A

Hit Count: updated at: Wed, 08 Dec 2021 15:40:44 GMT